This is the latest recevied weather packets stored in our database for station/object N4BBA. If no packets are shown the sender has not sent any weather packets the latest 10 day(s).
| Time | Temp. | Humidity | Pressure | Rain* | Wind** | Luminosity | Snow |
|---|---|---|---|---|---|---|---|
| 1777941935 | 21.11° C | 47% | 1013.9 hPa | 0 mm | - | 0 W/m² | - |
| 1777941632 | 21.11° C | 46% | 1013.7 hPa | 0 mm | - | 0 W/m² | - |
| 1777941329 | 21.11° C | 46% | 1013.7 hPa | 0 mm | - | 0 W/m² | - |
| 1777941026 | 21.11° C | 46% | 1013.6 hPa | 0 mm | - | 0 W/m² | - |
| 1777940726 | 21.67° C | 45% | 1013.7 hPa | 0 mm | - | 0 W/m² | - |
| 1777940426 | 21.67° C | 44% | 1013.6 hPa | 0 mm | - | 0 W/m² | - |
| 1777940123 | 21.67° C | 44% | 1013.6 hPa | 0 mm | - | 0 W/m² | - |
| 1777939820 | 21.67° C | 43% | 1013.5 hPa | 0 mm | - | 1 W/m² | - |
| 1777939517 | 22.22° C | 43% | 1013.6 hPa | 0 mm | - | 2 W/m² | - |
| 1777939215 | 22.22° C | 42% | 1013.5 hPa | 0 mm | - | 4 W/m² | - |
| 1777938911 | 22.78° C | 41% | 1013.6 hPa | 0 mm | - | 7 W/m² | - |
| 1777938608 | 22.78° C | 41% | 1013.5 hPa | 0 mm | - | 11 W/m² | - |
| 1777938305 | 22.78° C | 40% | 1013.5 hPa | 0 mm | - | 14 W/m² | - |
| 1777938002 | 23.33° C | 40% | 1013.2 hPa | 0 mm | - | 18 W/m² | - |
| 1777937697 | 23.33° C | 39% | 1013.2 hPa | 0 mm | - | 22 W/m² | - |
| 1777937394 | 23.33° C | 39% | 1013.1 hPa | 0 mm | - | 25 W/m² | - |
| 1777937091 | 23.89° C | 39% | 1013 hPa | 0 mm | - | 31 W/m² | - |
| 1777936789 | 23.89° C | 39% | 1013.1 hPa | 0 mm | - | 36 W/m² | - |
| 1777936485 | 23.89° C | 39% | 1013.1 hPa | 0 mm | - | 39 W/m² | - |
| 1777936181 | 24.44° C | 38% | 1013.2 hPa | 0 mm | - | 44 W/m² | - |
| 1777935878 | 24.44° C | 38% | 1013.1 hPa | 0 mm | - | 71 W/m² | - |
| 1777935577 | 25° C | 38% | 1012.8 hPa | 0 mm | - | 81 W/m² | - |
| 1777935273 | 25° C | 38% | 1013 hPa | 0 mm | - | 91 W/m² | - |
| 1777934971 | 25° C | 37% | 1013.2 hPa | 0 mm | - | 104 W/m² | - |
| 1777934667 | 25° C | 37% | 1013 hPa | 0 mm | - | 116 W/m² | - |
* Rain latest hour (hover to see other rain measurements)
** Current wind speed in m/s (hover to see current wind gust speed)